Location: Newark
(13.6797°N, 8.5297°E)
Time: 01:48:45
(UTC+00:00)

A-11 Canister half - Pass Details

Date: 22 January 2020
Orbit: 1517 x 1683 km, 47.2° (Epoch: 19 February)

Event Time Altitude Azimuth Distance (km) Brightness Sun altitude
Rises 08:16:01 0° 313° (NW) 4,688 11.0 30.3°
Reaches altitude 10° 08:19:03 10° 310° (NW) 3,720 10.6 30.9°
Maximum altitude 08:28:21 66° 230° (SW) 1,705 9.7 32.7°
Drops below altitude 10° 08:38:00 10° 150° (SSE) 3,847 12.2 34.7°
Sets 08:41:12 0° 148° (SSE) 4,854 12.5 35.3°
